This is the latest recevied weather packets stored in our database for station/object KJ6APE. If no packets are shown the sender has not sent any weather packets the latest 10 day(s).
| Time | Temp. | Humidity | Pressure | Rain* | Wind** | Luminosity | Snow |
|---|---|---|---|---|---|---|---|
| 1777557811 | 11.67° C | 89% | 1015 hPa | 0 mm | - | 44 W/m² | - |
| 1777557507 | 11.11° C | 93% | 1014.8 hPa | 0 mm | - | 38 W/m² | - |
| 1777557204 | 10.56° C | 94% | 1015.2 hPa | 0 mm | - | 32 W/m² | - |
| 1777556900 | 10° C | 94% | 1015 hPa | 0 mm | - | 25 W/m² | - |
| 1777556595 | 8.89° C | 94% | 1014.8 hPa | 0 mm | - | 21 W/m² | - |
| 1777556295 | 8.89° C | 94% | 1014.8 hPa | 0 mm | - | 18 W/m² | - |
| 1777555992 | 8.89° C | 94% | 1015 hPa | 0 mm | - | 15 W/m² | - |
| 1777555692 | 8.89° C | 93% | 1015 hPa | 0 mm | - | 11 W/m² | - |
| 1777555389 | 8.89° C | 93% | 1014.9 hPa | 0 mm | - | 8 W/m² | - |
| 1777555085 | 8.89° C | 93% | 1014.9 hPa | 0 mm | - | 5 W/m² | - |
| 1777554783 | 8.89° C | 93% | 1015 hPa | 0 mm | - | 3 W/m² | - |
| 1777554479 | 8.89° C | 93% | 1015 hPa | 0 mm | - | 2 W/m² | - |
| 1777554176 | 8.89° C | 93% | 1015 hPa | 0 mm | - | 1 W/m² | - |
| 1777553873 | 8.89° C | 92% | 1014.7 hPa | 0 mm | - | 0 W/m² | - |
| 1777553569 | 8.89° C | 92% | 1014.9 hPa | 0 mm | - | 0 W/m² | - |
| 1777553265 | 8.89° C | 92% | 1015 hPa | 0 mm | - | 0 W/m² | - |
| 1777552962 | 8.89° C | 92% | 1014.9 hPa | 0 mm | - | 0 W/m² | - |
| 1777552656 | 8.89° C | 92% | 1015 hPa | 0 mm | - | 0 W/m² | - |
| 1777552354 | 9.44° C | 92% | 1015.1 hPa | 0 mm | - | 0 W/m² | - |
| 1777552050 | 9.44° C | 92% | 1015.1 hPa | 0 mm | - | 0 W/m² | - |
| 1777551747 | 9.44° C | 92% | 1014.9 hPa | 0 mm | - | 0 W/m² | - |
| 1777551444 | 9.44° C | 92% | 1014.9 hPa | 0 mm | - | 0 W/m² | - |
| 1777551141 | 9.44° C | 92% | 1014.9 hPa | 0 mm | - | 0 W/m² | - |
| 1777550839 | 9.44° C | 93% | 1014.9 hPa | 0 mm | - | 0 W/m² | - |
| 1777550535 | 9.44° C | 93% | 1014.8 hPa | 0 mm | - | 0 W/m² | - |
* Rain latest hour (hover to see other rain measurements)
** Current wind speed in m/s (hover to see current wind gust speed)